 ,,�O�C���x [��],����1,�O�C���x [��],����2,���ԉ��x [��],����3,���Ԏ��x [��],����4,�Q�����x [��],����5,�Q�����x [��],����6,�Q�X�g���[��(��󒲎�)���x [��],����7,���� [��],����8,�Q�X�g���[��(��󒲎�)���x [��],����7,���� [��],����8
2004/2/1,0:00,,1,,1,15.2,0,43.8,0,13.6,0,47.1,0,13.6,0,47.1,0,13.2,0,6.4,0
2004/2/1,0:15,,1,,1,15.2,0,43.7,0,13.6,0,46.8,0,13.6,0,46.8,0,13.3,0,6.5,0
2004/2/1,0:30,,1,,1,14.8,0,44.4,0,13.5,0,47,0,13.5,0,47,0,13.3,0,6,0
2004/2/1,0:45,,1,,1,14.4,0,46,0,13.1,0,50.8,0,13.1,0,50.8,0,13.3,0,5.9,0
2004/2/1,1:00,,1,,1,14.2,0,46.5,0,13,0,49.1,0,13,0,49.1,0,13.3,0,6,0
2004/2/1,1:15,,1,,1,14,0,48.1,0,12.8,0,48.5,0,12.8,0,48.5,0,13.2,0,6.1,0
2004/2/1,1:30,,1,,1,13.9,0,49.1,0,12.6,0,48.4,0,12.6,0,48.4,0,13,0,6.2,0
2004/2/1,1:45,,1,,1,13.7,0,49.8,0,12.6,0,50.5,0,12.6,0,50.5,0,12.9,0,6.3,0
2004/2/1,2:00,,1,,1,13.5,0,50.9,0,12.5,0,49.4,0,12.5,0,49.4,0,12.7,0,6.4,0
2004/2/1,2:15,,1,,1,13.3,0,51.1,0,12.4,0,50.7,0,12.4,0,50.7,0,12.6,0,6.5,0
2004/2/1,2:30,,1,,1,13.2,0,51.7,0,12.3,0,50,0,12.3,0,50,0,12.5,0,6.6,0
2004/2/1,2:45,,1,,1,13.1,0,51.8,0,12.2,0,51.1,0,12.2,0,51.1,0,12.4,0,6.7,0
2004/2/1,3:00,,1,,1,12.9,0,52.2,0,12.1,0,50.5,0,12.1,0,50.5,0,12.3,0,6.8,0
2004/2/1,3:15,,1,,1,12.8,0,52.4,0,12.1,0,50.8,0,12.1,0,50.8,0,12.1,0,7,0
2004/2/1,3:30,,1,,1,12.7,0,52.7,0,12,0,51.3,0,12,0,51.3,0,12,0,7.1,0
2004/2/1,3:45,,1,,1,12.6,0,52.8,0,11.9,0,51.1,0,11.9,0,51.1,0,11.9,0,7.2,0
2004/2/1,4:00,,1,,1,12.5,0,53,0,11.9,0,51.3,0,11.9,0,51.3,0,11.8,0,7.3,0
2004/2/1,4:15,,1,,1,12.4,0,52.8,0,11.8,0,51.8,0,11.8,0,51.8,0,11.7,0,7.4,0
2004/2/1,4:30,,1,,1,12.3,0,52.5,0,11.7,0,51.5,0,11.7,0,51.5,0,11.7,0,7.5,0
2004/2/1,4:45,,1,,1,12.2,0,52.5,0,11.6,0,51.6,0,11.6,0,51.6,0,11.6,0,7.5,0
2004/2/1,5:00,,1,,1,12.1,0,52,0,11.6,0,52,0,11.6,0,52,0,11.5,0,7.7,0
2004/2/1,5:15,,1,,1,12,0,52,0,11.5,0,52.4,0,11.5,0,52.4,0,11.4,0,7.7,0
2004/2/1,5:30,,1,,1,11.9,0,52,0,11.5,0,52.1,0,11.5,0,52.1,0,11.3,0,7.8,0
2004/2/1,5:45,,1,,1,11.8,0,52.1,0,11.5,0,52.7,0,11.5,0,52.7,0,11.2,0,7.9,0
2004/2/1,6:00,,1,,1,11.7,0,52.1,0,11.3,0,52.6,0,11.3,0,52.6,0,11.1,0,6.8,0
2004/2/1,6:15,,1,,1,11.6,0,51.9,0,11.3,0,52.5,0,11.3,0,52.5,0,11,0,7,0
2004/2/1,6:30,,1,,1,11.5,0,51.8,0,11.2,0,52.5,0,11.2,0,52.5,0,11,0,7,0
2004/2/1,6:45,,1,,1,11.4,0,51.7,0,11.1,0,52.3,0,11.1,0,52.3,0,10.9,0,7.1,0
2004/2/1,7:00,,1,,1,11.4,0,51.5,0,11,0,52.4,0,11,0,52.4,0,10.8,0,6.4,0
2004/2/1,7:15,,1,,1,12.6,0,52.4,0,11.2,0,53.9,0,11.2,0,53.9,0,10.7,0,6.5,0
2004/2/1,7:30,,1,,1,13.3,0,52.8,0,11.7,0,56,0,11.7,0,56,0,10.8,0,6.5,0
2004/2/1,7:45,,1,,1,12.9,0,53.9,0,12,0,55.5,0,12,0,55.5,0,10.9,0,6.6,0
2004/2/1,8:00,,1,,1,13,0,53.1,0,12.1,0,54.6,0,12.1,0,54.6,0,11,0,6.7,0
2004/2/1,8:15,,1,,1,13.2,0,53,0,12.4,0,53.8,0,12.4,0,53.8,0,11.2,0,6.7,0
2004/2/1,8:30,,1,,1,13.4,0,52.3,0,12.8,0,52.6,0,12.8,0,52.6,0,11.3,0,6.8,0
2004/2/1,8:45,,1,,1,13.8,0,51.4,0,13.2,0,51.5,0,13.2,0,51.5,0,11.5,0,6.9,0
2004/2/1,9:00,,1,,1,14,0,51,0,13.5,0,50.8,0,13.5,0,50.8,0,11.8,0,6,0
2004/2/1,9:15,,1,,1,14.5,0,52.5,0,13.9,0,52.8,0,13.9,0,52.8,0,12,0,6.3,0
2004/2/1,9:30,,1,,1,14.9,0,52.8,0,14.4,0,52.9,0,14.4,0,52.9,0,12.2,0,6.4,0
2004/2/1,9:45,,1,,1,16.1,0,50.3,0,14.5,0,51.9,0,14.5,0,51.9,0,12.4,0,6.5,0
2004/2/1,10:00,,1,,1,15.8,0,50.4,0,14.9,0,51.4,0,14.9,0,51.4,0,12.7,0,6,0
2004/2/1,10:15,,1,,1,16.6,0,49.7,0,15.2,0,51.9,0,15.2,0,51.9,0,13,0,6.2,0
2004/2/1,10:30,,1,,1,15.6,0,52.8,0,15.4,0,49.7,0,15.4,0,49.7,0,13.2,0,6.3,0
2004/2/1,10:45,,1,,1,16.3,0,53.4,0,15.9,0,51.6,0,15.9,0,51.6,0,13.5,0,6.4,0
2004/2/1,11:00,,1,,1,16.1,0,53.1,0,16.1,0,50.1,0,16.1,0,50.1,0,13.7,0,6.5,0
2004/2/1,11:15,,1,,1,16.9,0,51.9,0,16.5,0,50.8,0,16.5,0,50.8,0,14,0,6.6,0
2004/2/1,11:30,,1,,1,16.7,0,52,0,16.5,0,51.8,0,16.5,0,51.8,0,14.2,0,6,0
2004/2/1,11:45,,1,,1,15.4,0,56.2,0,16,0,49.8,0,16,0,49.8,0,14.4,0,5.7,0
2004/2/1,12:00,,1,,1,15,0,56.5,0,15.7,0,48.9,0,15.7,0,48.9,0,14.5,0,5.8,0
2004/2/1,12:15,,1,,1,14.8,0,55.5,0,16,0,47.4,0,16,0,47.4,0,14.5,0,5.9,0
2004/2/1,12:30,,1,,1,14.7,0,54.7,0,15.8,0,46.9,0,15.8,0,46.9,0,14.5,0,6.1,0
2004/2/1,12:45,,1,,1,14.6,0,54.6,0,15.5,0,47.8,0,15.5,0,47.8,0,14.5,0,6.3,0
2004/2/1,13:00,,1,,1,14.5,0,54.2,0,15.3,0,47.5,0,15.3,0,47.5,0,14.4,0,6.5,0
2004/2/1,13:15,,1,,1,14.4,0,54,0,15.5,0,46.6,0,15.5,0,46.6,0,14.4,0,6.6,0
2004/2/1,13:30,,1,,1,14.4,0,53.4,0,15.6,0,46.5,0,15.6,0,46.5,0,14.4,0,6.8,0
2004/2/1,13:45,,1,,1,14.3,0,53,0,15.5,0,46.2,0,15.5,0,46.2,0,14.4,0,7,0
2004/2/1,14:00,,1,,1,14.2,0,53.1,0,15.4,0,46.3,0,15.4,0,46.3,0,14.4,0,7.2,0
2004/2/1,14:15,,1,,1,14.2,0,52.9,0,15.1,0,47.2,0,15.1,0,47.2,0,14.4,0,7.4,0
2004/2/1,14:30,,1,,1,14.1,0,52.8,0,14.9,0,47.4,0,14.9,0,47.4,0,14.3,0,7.6,0
2004/2/1,14:45,,1,,1,14.1,0,52.5,0,14.8,0,47.5,0,14.8,0,47.5,0,14.3,0,7.8,0
2004/2/1,15:00,,1,,1,14,0,52.2,0,14.8,0,46.7,0,14.8,0,46.7,0,14.3,0,8,0
2004/2/1,15:15,,1,,1,14,0,52,0,14.7,0,47.1,0,14.7,0,47.1,0,14.3,0,8.2,0
2004/2/1,15:30,,1,,1,13.9,0,51.8,0,14.6,0,47,0,14.6,0,47,0,14.3,0,8.3,0
2004/2/1,15:45,,1,,1,13.9,0,51.4,0,14.5,0,47.3,0,14.5,0,47.3,0,14.2,0,8.5,0
2004/2/1,16:00,,1,,1,13.8,0,51.1,0,14.5,0,47.5,0,14.5,0,47.5,0,14.2,0,8.7,0
2004/2/1,16:15,,1,,1,13.7,0,50.9,0,14.3,0,47.8,0,14.3,0,47.8,0,14.2,0,8.9,0
2004/2/1,16:30,,1,,1,13.7,0,51.2,0,14.2,0,47.9,0,14.2,0,47.9,0,14.1,0,9,0
2004/2/1,16:45,,1,,1,13.6,0,51.5,0,14.1,0,48,0,14.1,0,48,0,14,0,9.2,0
2004/2/1,17:00,,1,,1,13.5,0,51.7,0,14,0,48.1,0,14,0,48.1,0,13.9,0,9.4,0
2004/2/1,17:15,,1,,1,13.4,0,51.6,0,14,0,48.1,0,14,0,48.1,0,13.8,0,9.5,0
2004/2/1,17:30,,1,,1,13.3,0,51.6,0,13.9,0,48.1,0,13.9,0,48.1,0,13.7,0,9.7,0
2004/2/1,17:45,,1,,1,13.3,0,51.6,0,13.8,0,48.5,0,13.8,0,48.5,0,13.6,0,9.8,0
2004/2/1,18:00,,1,,1,13.2,0,51.5,0,13.7,0,47.9,0,13.7,0,47.9,0,13.5,0,10,0
2004/2/1,18:15,,1,,1,13.2,0,51.4,0,13.7,0,48,0,13.7,0,48,0,13.5,0,10.2,0
2004/2/1,18:30,,1,,1,13.1,0,51.4,0,13.6,0,47.2,0,13.6,0,47.2,0,13.4,0,10.3,0
2004/2/1,18:45,,1,,1,13,0,51.4,0,13.5,0,47.2,0,13.5,0,47.2,0,13.3,0,10.5,0
2004/2/1,19:00,,1,,1,13,0,51.4,0,13.4,0,47.4,0,13.4,0,47.4,0,13.2,0,10.7,0
2004/2/1,19:15,,1,,1,12.9,0,51.4,0,13.4,0,47.2,0,13.4,0,47.2,0,13.2,0,10.8,0
2004/2/1,19:30,,1,,1,12.8,0,51.2,0,13.3,0,46.9,0,13.3,0,46.9,0,13.1,0,11,0
2004/2/1,19:45,,1,,1,12.8,0,51.4,0,13.2,0,47.1,0,13.2,0,47.1,0,13,0,11.1,0
2004/2/1,20:00,,1,,1,12.7,0,51.3,0,13.1,0,47.1,0,13.1,0,47.1,0,12.9,0,11.3,0
2004/2/1,20:15,,1,,1,12.6,0,51,0,13,0,47,0,13,0,47,0,12.9,0,11.4,0
2004/2/1,20:30,,1,,1,12.6,0,50.9,0,13,0,47.3,0,13,0,47.3,0,12.8,0,11.5,0
2004/2/1,20:45,,1,,1,12.6,0,50.6,0,12.9,0,47.4,0,12.9,0,47.4,0,12.7,0,6.7,0
2004/2/1,21:00,,1,,1,13.3,0,53,0,13.1,0,49.7,0,13.1,0,49.7,0,12.7,0,7,0
2004/2/1,21:15,,1,,1,13.6,0,52.1,0,13.2,0,51.1,0,13.2,0,51.1,0,12.7,0,7.2,0
2004/2/1,21:30,,1,,1,13.6,0,51.3,0,13.2,0,50.6,0,13.2,0,50.6,0,12.8,0,7.3,0
2004/2/1,21:45,,1,,1,14.6,0,47.5,0,13.4,0,49.9,0,13.4,0,49.9,0,12.8,0,7.5,0
2004/2/1,22:00,,1,,1,14.5,0,47.9,0,13.5,0,49.5,0,13.5,0,49.5,0,12.9,0,7.7,0
2004/2/1,22:15,,1,,1,14.2,0,48.9,0,13.5,0,49.3,0,13.5,0,49.3,0,13,0,7.8,0
2004/2/1,22:30,,1,,1,14.2,0,48.7,0,13.6,0,49.2,0,13.6,0,49.2,0,13,0,8,0
2004/2/1,22:45,,1,,1,14.3,0,48.4,0,13.6,0,49,0,13.6,0,49,0,13.1,0,8.1,0
2004/2/1,23:00,,1,,1,14.4,0,47.9,0,13.7,0,48.6,0,13.7,0,48.6,0,13.2,0,8.3,0
2004/2/1,23:15,,1,,1,14.5,0,47.4,0,13.7,0,48.4,0,13.7,0,48.4,0,13.2,0,8.5,0
2004/2/1,23:30,,1,,1,14.6,0,47,0,13.8,0,48.1,0,13.8,0,48.1,0,13.3,0,8.6,0
2004/2/1,23:45,,1,,1,14.8,0,46.4,0,13.7,0,48.1,0,13.7,0,48.1,0,13.3,0,8.8,0
2004/2/2,0:00,,1,,1,14.8,0,46.3,0,13.8,0,47.8,0,13.8,0,47.8,0,13.4,0,9,0
2004/2/2,0:15,,1,,1,14.9,0,45.8,0,13.8,0,47.6,0,13.8,0,47.6,0,13.4,0,9.1,0
2004/2/2,0:30,,1,,1,14.8,0,45.7,0,13.8,0,47.4,0,13.8,0,47.4,0,13.5,0,9.3,0
2004/2/2,0:45,,1,,1,14.8,0,47.9,0,13.8,0,48.2,0,13.8,0,48.2,0,13.5,0,7.4,0
2004/2/2,1:00,,1,,1,15.1,0,47.2,0,13.8,0,48.9,0,13.8,0,48.9,0,13.6,0,6.2,0
2004/2/2,1:15,,1,,1,15.4,0,45.7,0,13.8,0,48.6,0,13.8,0,48.6,0,13.6,0,6.3,0
2004/2/2,1:30,,1,,1,14.9,0,46.4,0,13.8,0,48.3,0,13.8,0,48.3,0,13.6,0,6.4,0
2004/2/2,1:45,,1,,1,14.9,0,46.2,0,13.8,0,48.3,0,13.8,0,48.3,0,13.6,0,6.6,0
2004/2/2,2:00,,1,,1,14.9,0,45.9,0,13.7,0,48.1,0,13.7,0,48.1,0,13.6,0,6.7,0
2004/2/2,2:15,,1,,1,14.5,0,46.3,0,13.4,0,48,0,13.4,0,48,0,13.6,0,6.9,0
2004/2/2,2:30,,1,,1,14.3,0,47,0,13.2,0,48.6,0,13.2,0,48.6,0,13.6,0,7,0
2004/2/2,2:45,,1,,1,14.1,0,48.4,0,13.1,0,49.5,0,13.1,0,49.5,0,13.5,0,7.1,0
2004/2/2,3:00,,1,,1,13.9,0,49.3,0,13,0,49.6,0,13,0,49.6,0,13.4,0,7.3,0
2004/2/2,3:15,,1,,1,13.8,0,49.7,0,12.9,0,49.8,0,12.9,0,49.8,0,13.2,0,7.4,0
2004/2/2,3:30,,1,,1,13.6,0,49.8,0,12.8,0,50.3,0,12.8,0,50.3,0,13,0,7.6,0
2004/2/2,3:45,,1,,1,13.5,0,50.4,0,12.6,0,50.6,0,12.6,0,50.6,0,12.9,0,7.7,0
2004/2/2,4:00,,1,,1,13.3,0,50.8,0,12.6,0,50.7,0,12.6,0,50.7,0,12.7,0,7.8,0
2004/2/2,4:15,,1,,1,13.2,0,50.8,0,12.4,0,50.9,0,12.4,0,50.9,0,12.6,0,7.9,0
2004/2/2,4:30,,1,,1,13.1,0,51.2,0,12.4,0,51.3,0,12.4,0,51.3,0,12.4,0,8.1,0
2004/2/2,4:45,,1,,1,12.9,0,51.2,0,12.3,0,51.3,0,12.3,0,51.3,0,12.3,0,8.2,0
2004/2/2,5:00,,1,,1,12.8,0,51.3,0,12.2,0,51.4,0,12.2,0,51.4,0,12.2,0,8.3,0
2004/2/2,5:15,,1,,1,12.7,0,51.4,0,12.1,0,51.6,0,12.1,0,51.6,0,12.1,0,8.4,0
2004/2/2,5:30,,1,,1,12.6,0,51.3,0,12,0,51.8,0,12,0,51.8,0,12,0,8.5,0
2004/2/2,5:45,,1,,1,12.5,0,51.2,0,11.9,0,52,0,11.9,0,52,0,11.9,0,8.6,0
2004/2/2,6:00,,1,,1,12.4,0,51.1,0,11.9,0,51.8,0,11.9,0,51.8,0,11.8,0,8.7,0
2004/2/2,6:15,,1,,1,12.3,0,51.6,0,11.8,0,52.1,0,11.8,0,52.1,0,11.7,0,6.9,0
2004/2/2,6:30,,1,,1,12.4,0,52.7,0,11.8,0,52.1,0,11.8,0,52.1,0,11.6,0,7.2,0
2004/2/2,6:45,,1,,1,12.6,0,53.1,0,12,0,51.9,0,12,0,51.9,0,11.6,0,7.3,0
2004/2/2,7:00,,1,,1,12.8,0,52.9,0,12.1,0,52.4,0,12.1,0,52.4,0,11.6,0,7.4,0
2004/2/2,7:15,,1,,1,13.3,0,52.2,0,12.3,0,53,0,12.3,0,53,0,11.6,0,7.6,0
2004/2/2,7:30,,1,,1,13.5,0,52.8,0,12.5,0,53.7,0,12.5,0,53.7,0,11.7,0,7.6,0
2004/2/2,7:45,,1,,1,13.7,0,53.5,0,12.7,0,54.5,0,12.7,0,54.5,0,11.8,0,7.7,0
2004/2/2,8:00,,1,,1,14.6,0,51.1,0,12.7,0,54.9,0,12.7,0,54.9,0,11.9,0,7.8,0
2004/2/2,8:15,,1,,1,14.8,0,50.1,0,12.7,0,54.5,0,12.7,0,54.5,0,12,0,7.9,0
2004/2/2,8:30,,1,,1,14.6,0,50.3,0,12.9,0,54.3,0,12.9,0,54.3,0,12.1,0,6.4,0
2004/2/2,8:45,,1,,1,13.6,0,51.8,0,12.4,0,53.1,0,12.4,0,53.1,0,12.2,0,6.8,0
2004/2/2,9:00,,1,,1,13.3,0,51.8,0,12.2,0,51.4,0,12.2,0,51.4,0,12.2,0,6.9,0
2004/2/2,9:15,,1,,1,13.2,0,51.3,0,12.1,0,51.4,0,12.1,0,51.4,0,12.1,0,7,0
2004/2/2,9:30,,1,,1,13,0,51.1,0,12,0,51.5,0,12,0,51.5,0,12.1,0,7.2,0
2004/2/2,9:45,,1,,1,12.9,0,50.9,0,11.9,0,51.2,0,11.9,0,51.2,0,12,0,7.3,0
2004/2/2,10:00,,1,,1,12.8,0,50.7,0,11.8,0,51,0,11.8,0,51,0,11.9,0,7.3,0
2004/2/2,10:15,,1,,1,12.7,0,50.7,0,11.7,0,50.9,0,11.7,0,50.9,0,11.9,0,7.4,0
2004/2/2,10:30,,1,,1,12.5,0,50.6,0,11.7,0,50.9,0,11.7,0,50.9,0,11.8,0,7.5,0
2004/2/2,10:45,,1,,1,12.5,0,50.5,0,11.6,0,50.8,0,11.6,0,50.8,0,11.7,0,7.6,0
2004/2/2,11:00,,1,,1,12.4,0,50.5,0,11.6,0,50.6,0,11.6,0,50.6,0,11.6,0,7.7,0
2004/2/2,11:15,,1,,1,12.3,0,50.4,0,11.5,0,50.5,0,11.5,0,50.5,0,11.6,0,7.8,0
2004/2/2,11:30,,1,,1,12.2,0,50.3,0,11.5,0,50.5,0,11.5,0,50.5,0,11.5,0,7.8,0
2004/2/2,11:45,,1,,1,12.2,0,50.3,0,11.4,0,50.2,0,11.4,0,50.2,0,11.5,0,7.9,0
2004/2/2,12:00,,1,,1,12.1,0,50.2,0,11.4,0,50.1,0,11.4,0,50.1,0,11.4,0,8,0
2004/2/2,12:15,,1,,1,12,0,50.2,0,11.4,0,50.1,0,11.4,0,50.1,0,11.4,0,8.1,0
2004/2/2,12:30,,1,,1,12,0,50.1,0,11.3,0,50.1,0,11.3,0,50.1,0,11.3,0,8.1,0
2004/2/2,12:45,,1,,1,11.9,0,50.1,0,11.2,0,50.2,0,11.2,0,50.2,0,11.3,0,8.2,0
2004/2/2,13:00,,1,,1,11.8,0,50.1,0,11.2,0,50.2,0,11.2,0,50.2,0,11.2,0,8.3,0
2004/2/2,13:15,,1,,1,11.7,0,50.2,0,11.2,0,50.2,0,11.2,0,50.2,0,11.2,0,8.4,0
2004/2/2,13:30,,1,,1,11.7,0,50.2,0,11.1,0,50.3,0,11.1,0,50.3,0,11.1,0,8.4,0
2004/2/2,13:45,,1,,1,11.6,0,50.3,0,11.1,0,50.4,0,11.1,0,50.4,0,11.1,0,8.5,0
2004/2/2,14:00,,1,,1,11.6,0,50.3,0,11,0,50.6,0,11,0,50.6,0,11,0,8.6,0
2004/2/2,14:15,,1,,1,11.5,0,50.4,0,11,0,50.6,0,11,0,50.6,0,11,0,8.6,0
2004/2/2,14:30,,1,,1,11.5,0,50.4,0,11,0,50.7,0,11,0,50.7,0,10.9,0,8.7,0
2004/2/2,14:45,,1,,1,11.4,0,50.4,0,10.9,0,50.8,0,10.9,0,50.8,0,10.9,0,8.8,0
2004/2/2,15:00,,1,,1,11.4,0,50.6,0,10.8,0,50.9,0,10.8,0,50.9,0,10.8,0,8.8,0
2004/2/2,15:15,,1,,1,11.4,0,51.3,0,10.8,0,50.9,0,10.8,0,50.9,0,10.8,0,6.3,0
2004/2/2,15:30,,1,,1,12.6,0,49.2,0,11.1,0,51,0,11.1,0,51,0,10.7,0,6.5,0
2004/2/2,15:45,,1,,1,13,0,48.5,0,11.3,0,51.4,0,11.3,0,51.4,0,10.8,0,6.6,0
2004/2/2,16:00,,1,,1,12.5,0,50.4,0,11.4,0,51.7,0,11.4,0,51.7,0,10.9,0,6.6,0
2004/2/2,16:15,,1,,1,12.6,0,50.3,0,11.6,0,51.4,0,11.6,0,51.4,0,10.9,0,6.7,0
2004/2/2,16:30,,1,,1,12.7,0,50.1,0,11.7,0,51.4,0,11.7,0,51.4,0,11,0,6.8,0
2004/2/2,16:45,,1,,1,12.8,0,50,0,11.8,0,51.1,0,11.8,0,51.1,0,11.1,0,6.9,0
2004/2/2,17:00,,1,,1,12.9,0,49.8,0,12,0,51,0,12,0,51,0,11.2,0,6.9,0
2004/2/2,17:15,,1,,1,13.1,0,49.6,0,12.1,0,50.8,0,12.1,0,50.8,0,11.3,0,7,0
2004/2/2,17:30,,1,,1,13.2,0,49.3,0,12.2,0,50.5,0,12.2,0,50.5,0,11.4,0,7.1,0
2004/2/2,17:45,,1,,1,13.3,0,49,0,12.3,0,50.3,0,12.3,0,50.3,0,11.5,0,7.2,0
2004/2/2,18:00,,1,,1,13.4,0,48.9,0,12.4,0,50.1,0,12.4,0,50.1,0,11.6,0,7.3,0
2004/2/2,18:15,,1,,1,13.4,0,48.9,0,12.5,0,49.9,0,12.5,0,49.9,0,11.8,0,7.4,0
2004/2/2,18:30,,1,,1,13.6,0,49,0,12.6,0,49.7,0,12.6,0,49.7,0,11.8,0,7.4,0
2004/2/2,18:45,,1,,1,13.9,0,49.5,0,12.7,0,51.3,0,12.7,0,51.3,0,11.9,0,7.5,0
2004/2/2,19:00,,1,,1,13.7,0,50.6,0,12.8,0,51.7,0,12.8,0,51.7,0,12,0,7.6,0
2004/2/2,19:15,,1,,1,14,0,49.6,0,12.9,0,51.3,0,12.9,0,51.3,0,12.1,0,7.7,0
2004/2/2,19:30,,1,,1,14.1,0,49.4,0,12.9,0,51.4,0,12.9,0,51.4,0,12.2,0,7.7,0
2004/2/2,19:45,,1,,1,14.1,0,49.3,0,13.1,0,51,0,13.1,0,51,0,12.3,0,7.8,0
2004/2/2,20:00,,1,,1,14.2,0,49.1,0,13.1,0,51.1,0,13.1,0,51.1,0,12.4,0,7.9,0
2004/2/2,20:15,,1,,1,14.3,0,49,0,13.2,0,50.9,0,13.2,0,50.9,0,12.5,0,6.5,0
2004/2/2,20:30,,1,,1,14.2,0,49.3,0,13.2,0,51,0,13.2,0,51,0,12.6,0,6.8,0
2004/2/2,20:45,,1,,1,14.8,0,47.8,0,13.3,0,50.6,0,13.3,0,50.6,0,12.7,0,6.9,0
2004/2/2,21:00,,1,,1,14.6,0,48.4,0,13.4,0,50.6,0,13.4,0,50.6,0,12.8,0,7,0
2004/2/2,21:15,,1,,1,14.5,0,48.9,0,13.5,0,50.6,0,13.5,0,50.6,0,12.8,0,7.1,0
2004/2/2,21:30,,1,,1,14.7,0,48.1,0,13.5,0,50.4,0,13.5,0,50.4,0,12.9,0,7.2,0
2004/2/2,21:45,,1,,1,14.8,0,47.7,0,13.6,0,50.1,0,13.6,0,50.1,0,13,0,7.3,0
2004/2/2,22:00,,1,,1,14.7,0,48,0,13.6,0,50,0,13.6,0,50,0,13.1,0,7.4,0
2004/2/2,22:15,,1,,1,14.7,0,48.3,0,13.7,0,49.9,0,13.7,0,49.9,0,13.1,0,7.4,0
2004/2/2,22:30,,1,,1,14.7,0,48.2,0,13.7,0,49.7,0,13.7,0,49.7,0,13.2,0,7.5,0
2004/2/2,22:45,,1,,1,15.1,0,47.4,0,13.7,0,49.8,0,13.7,0,49.8,0,13.3,0,7.6,0
2004/2/2,23:00,,1,,1,15.1,0,47.1,0,13.8,0,49.9,0,13.8,0,49.9,0,13.3,0,7.7,0
2004/2/2,23:15,,1,,1,15.1,0,47.3,0,13.8,0,49.9,0,13.8,0,49.9,0,13.4,0,7.8,0
2004/2/2,23:30,,1,,1,15.1,0,47.5,0,13.9,0,49.8,0,13.9,0,49.8,0,13.4,0,7.8,0
2004/2/2,23:45,,1,,1,15.7,0,46.3,0,13.9,0,49.7,0,13.9,0,49.7,0,13.5,0,7.9,0
2004/2/3,0:00,,1,,1,15.2,0,47,0,14.1,0,49.1,0,14.1,0,49.1,0,13.5,0,8,0
2004/2/3,0:15,,1,,1,15.2,0,48,0,14,0,49.1,0,14,0,49.1,0,13.6,0,6.1,0
2004/2/3,0:30,,1,,1,15.4,0,48.5,0,14.1,0,49.7,0,14.1,0,49.7,0,13.6,0,6.4,0
2004/2/3,0:45,,1,,1,14.8,0,48.3,0,13.8,0,50.6,0,13.8,0,50.6,0,13.7,0,6.5,0
2004/2/3,1:00,,1,,1,15.3,0,47.2,0,14.1,0,49.6,0,14.1,0,49.6,0,13.7,0,6.6,0
2004/2/3,1:15,,1,,1,14.9,0,48.6,0,13.9,0,50.2,0,13.9,0,50.2,0,13.7,0,6.1,0
2004/2/3,1:30,,1,,1,14.8,0,50.5,0,13.7,0,53.9,0,13.7,0,53.9,0,13.8,0,6.2,0
2004/2/3,1:45,,1,,1,14.6,0,53.5,0,13.6,0,52.7,0,13.6,0,52.7,0,13.7,0,6.3,0
2004/2/3,2:00,,1,,1,14.4,0,52.3,0,13.5,0,52.9,0,13.5,0,52.9,0,13.7,0,6.4,0
2004/2/3,2:15,,1,,1,14.3,0,52,0,13.4,0,52.9,0,13.4,0,52.9,0,13.6,0,6.5,0
2004/2/3,2:30,,1,,1,14.2,0,51.3,0,13.3,0,53,0,13.3,0,53,0,13.6,0,6.6,0
2004/2/3,2:45,,1,,1,14.2,0,51.1,0,13.2,0,52.8,0,13.2,0,52.8,0,13.5,0,6.7,0
2004/2/3,3:00,,1,,1,14.1,0,50.8,0,13.1,0,52.9,0,13.1,0,52.9,0,13.5,0,6.8,0
2004/2/3,3:15,,1,,1,14,0,51.1,0,13.1,0,52.8,0,13.1,0,52.8,0,13.4,0,6.9,0
2004/2/3,3:30,,1,,1,14,0,50.4,0,13,0,52.6,0,13,0,52.6,0,13.3,0,7,0
2004/2/3,3:45,,1,,1,14.1,0,49.8,0,13,0,52.6,0,13,0,52.6,0,13.3,0,7.1,0
2004/2/3,4:00,,1,,1,13.8,0,50.6,0,12.9,0,52.7,0,12.9,0,52.7,0,13.2,0,7.2,0
2004/2/3,4:15,,1,,1,13.8,0,50,0,12.9,0,52.3,0,12.9,0,52.3,0,13.1,0,7.3,0
2004/2/3,4:30,,1,,1,13.8,0,49.9,0,12.8,0,52.3,0,12.8,0,52.3,0,13.1,0,7.4,0
2004/2/3,4:45,,1,,1,13.7,0,50.1,0,12.8,0,52.1,0,12.8,0,52.1,0,13,0,7.5,0
2004/2/3,5:00,,1,,1,13.7,0,49.9,0,12.7,0,52,0,12.7,0,52,0,13,0,7.6,0
2004/2/3,5:15,,1,,1,13.6,0,49.9,0,12.7,0,51.9,0,12.7,0,51.9,0,12.9,0,7.7,0
2004/2/3,5:30,,1,,1,13.6,0,49.4,0,12.7,0,51.7,0,12.7,0,51.7,0,12.9,0,7.7,0
2004/2/3,5:45,,1,,1,13.4,0,50.1,0,12.7,0,51.5,0,12.7,0,51.5,0,12.8,0,7.8,0
2004/2/3,6:00,,1,,1,13.5,0,49.5,0,12.6,0,51.5,0,12.6,0,51.5,0,12.8,0,7.9,0
2004/2/3,6:15,,1,,1,13.3,0,49.9,0,12.6,0,51.3,0,12.6,0,51.3,0,12.7,0,8,0
2004/2/3,6:30,,1,,1,13.4,0,49.4,0,12.5,0,51.2,0,12.5,0,51.2,0,12.7,0,8.1,0
2004/2/3,6:45,,1,,1,13.2,0,49.7,0,12.5,0,51.1,0,12.5,0,51.1,0,12.7,0,8.2,0
2004/2/3,7:00,,1,,1,13.6,0,49.8,0,12.5,0,51.4,0,12.5,0,51.4,0,12.6,0,6.7,0
2004/2/3,7:15,,1,,1,13.9,0,51.2,0,12.8,0,52.1,0,12.8,0,52.1,0,12.6,0,6.9,0
2004/2/3,7:30,,1,,1,14,0,51.2,0,13,0,52.5,0,13,0,52.5,0,12.6,0,7,0
2004/2/3,7:45,,1,,1,14.7,0,49.7,0,13.2,0,52.6,0,13.2,0,52.6,0,12.7,0,7.3,0
2004/2/3,8:00,,1,,1,14.6,0,51.9,0,13.3,0,53.2,0,13.3,0,53.2,0,12.8,0,7.4,0
2004/2/3,8:15,,1,,1,15.2,0,50.4,0,13.4,0,53.7,0,13.4,0,53.7,0,12.9,0,6.6,0
2004/2/3,8:30,,1,,1,14.3,0,51.6,0,13,0,55.1,0,13,0,55.1,0,13,0,6.9,0
2004/2/3,8:45,,1,,1,14,0,51.5,0,12.8,0,54.2,0,12.8,0,54.2,0,13,0,7,0
2004/2/3,9:00,,1,,1,13.9,0,51.4,0,12.9,0,52.9,0,12.9,0,52.9,0,13,0,7.1,0
2004/2/3,9:15,,1,,1,13.8,0,50.9,0,12.9,0,51.9,0,12.9,0,51.9,0,13,0,7.3,0
2004/2/3,9:30,,1,,1,13.7,0,50.6,0,13,0,51,0,13,0,51,0,13,0,7.4,0
2004/2/3,9:45,,1,,1,13.7,0,50.6,0,13.2,0,50.3,0,13.2,0,50.3,0,13,0,7.5,0
2004/2/3,10:00,,1,,1,13.7,0,50.2,0,13.4,0,49.8,0,13.4,0,49.8,0,13.1,0,7.6,0
2004/2/3,10:15,,1,,1,13.6,0,50.2,0,13.5,0,49.3,0,13.5,0,49.3,0,13.1,0,7.7,0
2004/2/3,10:30,,1,,1,13.6,0,50,0,13.4,0,48.9,0,13.4,0,48.9,0,13.1,0,7.8,0
2004/2/3,10:45,,1,,1,13.5,0,49.7,0,13.5,0,48.8,0,13.5,0,48.8,0,13.1,0,7.9,0
2004/2/3,11:00,,1,,1,13.5,0,49.4,0,13.5,0,48.5,0,13.5,0,48.5,0,13.1,0,8.1,0
2004/2/3,11:15,,1,,1,13.4,0,49.3,0,13.4,0,48.3,0,13.4,0,48.3,0,13.1,0,8.2,0
2004/2/3,11:30,,1,,1,13.4,0,48.8,0,13.4,0,48.2,0,13.4,0,48.2,0,13.1,0,8.3,0
2004/2/3,11:45,,1,,1,13.4,0,48.9,0,13.5,0,48.5,0,13.5,0,48.5,0,13.1,0,8.4,0
2004/2/3,12:00,,1,,1,13.3,0,48.6,0,13.5,0,48,0,13.5,0,48,0,13.1,0,8.5,0
2004/2/3,12:15,,1,,1,13.3,0,48.4,0,13.4,0,48.2,0,13.4,0,48.2,0,13.1,0,8.6,0
2004/2/3,12:30,,1,,1,13.3,0,48.4,0,13.5,0,48.1,0,13.5,0,48.1,0,13.1,0,8.7,0
2004/2/3,12:45,,1,,1,13.2,0,48.3,0,13.5,0,47.9,0,13.5,0,47.9,0,13.2,0,8.8,0
2004/2/3,13:00,,1,,1,13.2,0,48.2,0,13.5,0,47.7,0,13.5,0,47.7,0,13.2,0,8.9,0
2004/2/3,13:15,,1,,1,13.2,0,48.1,0,13.4,0,48,0,13.4,0,48,0,13.2,0,9,0
2004/2/3,13:30,,1,,1,13.2,0,47.9,0,13.3,0,48.1,0,13.3,0,48.1,0,13.2,0,9.1,0
2004/2/3,13:45,,1,,1,13.1,0,47.9,0,13.3,0,48.2,0,13.3,0,48.2,0,13.2,0,9.2,0
2004/2/3,14:00,,1,,1,13.1,0,47.8,0,13.2,0,48.2,0,13.2,0,48.2,0,13.2,0,9.2,0
2004/2/3,14:15,,1,,1,13,0,47.7,0,13.1,0,48.1,0,13.1,0,48.1,0,13.1,0,9.3,0
2004/2/3,14:30,,1,,1,13,0,47.6,0,13.1,0,48.1,0,13.1,0,48.1,0,13.1,0,9.4,0
2004/2/3,14:45,,1,,1,12.9,0,47.7,0,13,0,47.8,0,13,0,47.8,0,13,0,9.5,0
2004/2/3,15:00,,1,,1,12.8,0,47.8,0,12.9,0,47.5,0,12.9,0,47.5,0,13,0,9.6,0
2004/2/3,15:15,,1,,1,12.8,0,47.9,0,12.9,0,47.5,0,12.9,0,47.5,0,12.9,0,9.6,0
2004/2/3,15:30,,1,,1,12.7,0,47.9,0,12.8,0,47.6,0,12.8,0,47.6,0,12.8,0,9.7,0
2004/2/3,15:45,,1,,1,12.7,0,47.9,0,12.7,0,47.5,0,12.7,0,47.5,0,12.8,0,9.8,0
2004/2/3,16:00,,1,,1,12.6,0,47.9,0,12.7,0,47.6,0,12.7,0,47.6,0,12.7,0,9.8,0
2004/2/3,16:15,,1,,1,12.5,0,47.9,0,12.6,0,47.6,0,12.6,0,47.6,0,12.6,0,9.9,0
2004/2/3,16:30,,1,,1,12.5,0,48,0,12.5,0,47.5,0,12.5,0,47.5,0,12.6,0,9.9,0
2004/2/3,16:45,,1,,1,12.4,0,48,0,12.5,0,47.5,0,12.5,0,47.5,0,12.5,0,10,0
2004/2/3,17:00,,1,,1,12.4,0,47.9,0,12.4,0,47.3,0,12.4,0,47.3,0,12.4,0,10.1,0
2004/2/3,17:15,,1,,1,12.3,0,47.9,0,12.3,0,47.1,0,12.3,0,47.1,0,12.4,0,10.2,0
2004/2/3,17:30,,1,,1,12.2,0,47.5,0,12.3,0,46.9,0,12.3,0,46.9,0,12.3,0,10.2,0
2004/2/3,17:45,,1,,1,12.9,0,46.2,0,12.2,0,47.1,0,12.2,0,47.1,0,12.2,0,10.3,0
2004/2/3,18:00,,1,,1,13.8,0,44.2,0,12.5,0,46.6,0,12.5,0,46.6,0,12.2,0,10.3,0
2004/2/3,18:15,,1,,1,13.1,0,46.4,0,12.5,0,46.6,0,12.5,0,46.6,0,12.2,0,10.4,0
2004/2/3,18:30,,1,,1,13.2,0,46.4,0,12.7,0,46.5,0,12.7,0,46.5,0,12.2,0,10.5,0
2004/2/3,18:45,,1,,1,13.3,0,46.2,0,12.8,0,46.4,0,12.8,0,46.4,0,12.3,0,10.5,0
2004/2/3,19:00,,1,,1,13.5,0,46,0,12.8,0,46.4,0,12.8,0,46.4,0,12.4,0,10.6,0
2004/2/3,19:15,,1,,1,14.1,0,44.5,0,13,0,46.1,0,13,0,46.1,0,12.4,0,7.2,0
2004/2/3,19:30,,1,,1,13.8,0,45.5,0,13,0,46.7,0,13,0,46.7,0,12.5,0,7.6,0
2004/2/3,19:45,,1,,1,14,0,45.4,0,13.1,0,46.7,0,13.1,0,46.7,0,12.6,0,6.5,0
2004/2/3,20:00,,1,,1,14,0,45.3,0,13.1,0,46.7,0,13.1,0,46.7,0,12.7,0,6.7,0
2004/2/3,20:15,,1,,1,14.1,0,46,0,13.2,0,46.8,0,13.2,0,46.8,0,12.7,0,6.8,0
2004/2/3,20:30,,1,,1,14.6,0,45.6,0,13.4,0,47.5,0,13.4,0,47.5,0,12.8,0,6.9,0
2004/2/3,20:45,,1,,1,14.7,0,45,0,13.4,0,47.3,0,13.4,0,47.3,0,12.9,0,6.9,0
2004/2/3,21:00,,1,,1,14.7,0,44.9,0,13.5,0,47.2,0,13.5,0,47.2,0,13,0,7.1,0
2004/2/3,21:15,,1,,1,14.7,0,44.8,0,13.5,0,47.1,0,13.5,0,47.1,0,13,0,7.1,0
2004/2/3,21:30,,1,,1,15,0,44.3,0,13.6,0,47,0,13.6,0,47,0,13.1,0,7.2,0
2004/2/3,21:45,,1,,1,15.2,0,43.8,0,13.6,0,46.9,0,13.6,0,46.9,0,13.2,0,7.3,0
2004/2/3,22:00,,1,,1,14.8,0,44.9,0,13.6,0,47,0,13.6,0,47,0,13.3,0,7.4,0
2004/2/3,22:15,,1,,1,14.8,0,45.1,0,13.7,0,47,0,13.7,0,47,0,13.3,0,7.5,0
2004/2/3,22:30,,1,,1,14.8,0,44.9,0,13.7,0,47,0,13.7,0,47,0,13.4,0,7.6,0
2004/2/3,22:45,,1,,1,14.9,0,45.1,0,13.8,0,46.9,0,13.8,0,46.9,0,13.4,0,7.7,0
2004/2/3,23:00,,1,,1,15.1,0,44.8,0,13.8,0,47,0,13.8,0,47,0,13.5,0,7.8,0
2004/2/3,23:15,,1,,1,15.3,0,44.4,0,13.8,0,47.2,0,13.8,0,47.2,0,13.5,0,7.9,0
2004/2/3,23:30,,1,,1,15.6,0,44,0,13.9,0,47.3,0,13.9,0,47.3,0,13.6,0,8,0
2004/2/3,23:45,,1,,1,15.4,0,44.4,0,14.2,0,46.5,0,14.2,0,46.5,0,13.6,0,8.1,0
2004/2/4,0:00,,1,,1,15.3,0,44.6,0,14.3,0,46.2,0,14.3,0,46.2,0,13.7,0,8.1,0
2004/2/4,0:15,,1,,1,15.6,0,43.9,0,14.3,0,46,0,14.3,0,46,0,13.8,0,8.2,0
2004/2/4,0:30,,1,,1,15.7,0,43.6,0,14.4,0,45.7,0,14.4,0,45.7,0,13.8,0,8.3,0
2004/2/4,0:45,,1,,1,15.5,0,44.1,0,14.4,0,45.8,0,14.4,0,45.8,0,13.9,0,8.4,0
2004/2/4,1:00,,1,,1,15.5,0,44,0,14.5,0,45.6,0,14.5,0,45.6,0,14,0,8.5,0
2004/2/4,1:15,,1,,1,15.1,0,45,0,14.2,0,46.2,0,14.2,0,46.2,0,14,0,8.6,0
2004/2/4,1:30,,1,,1,14.7,0,48.6,0,13.8,0,48.8,0,13.8,0,48.8,0,14,0,8.6,0
2004/2/4,1:45,,1,,1,14.5,0,49.7,0,13.6,0,50.2,0,13.6,0,50.2,0,13.9,0,8.7,0
2004/2/4,2:00,,1,,1,14.3,0,50.6,0,13.4,0,50.3,0,13.4,0,50.3,0,13.7,0,8.8,0
2004/2/4,2:15,,1,,1,14.1,0,51.4,0,13.2,0,50.4,0,13.2,0,50.4,0,13.5,0,8.9,0
2004/2/4,2:30,,1,,1,13.9,0,51.8,0,13.1,0,50.8,0,13.1,0,50.8,0,13.4,0,8.9,0
2004/2/4,2:45,,1,,1,13.8,0,52.3,0,13,0,50.9,0,13,0,50.9,0,13.2,0,9,0
2004/2/4,3:00,,1,,1,13.7,0,52.7,0,12.9,0,50.6,0,12.9,0,50.6,0,13.1,0,9.1,0
2004/2/4,3:15,,1,,1,13.5,0,53,0,12.8,0,51.4,0,12.8,0,51.4,0,13,0,9.2,0
2004/2/4,3:30,,1,,1,13.4,0,53,0,12.7,0,50.6,0,12.7,0,50.6,0,12.8,0,9.2,0
2004/2/4,3:45,,1,,1,13.3,0,53.2,0,12.6,0,50.9,0,12.6,0,50.9,0,12.7,0,9.3,0
2004/2/4,4:00,,1,,1,13.2,0,53.4,0,12.5,0,51.5,0,12.5,0,51.5,0,12.6,0,9.3,0
2004/2/4,4:15,,1,,1,13.1,0,53.3,0,12.4,0,51.7,0,12.4,0,51.7,0,12.5,0,9.4,0
2004/2/4,4:30,,1,,1,13,0,53.3,0,12.3,0,51.7,0,12.3,0,51.7,0,12.4,0,9.5,0
2004/2/4,4:45,,1,,1,12.9,0,53.2,0,12.2,0,52,0,12.2,0,52,0,12.3,0,9.5,0
2004/2/4,5:00,,1,,1,12.7,0,52.9,0,12.2,0,52.2,0,12.2,0,52.2,0,12.2,0,9.6,0
2004/2/4,5:15,,1,,1,12.6,0,53.1,0,12.1,0,52.3,0,12.1,0,52.3,0,12.1,0,9.6,0
2004/2/4,5:30,,1,,1,12.5,0,53,0,12,0,52.3,0,12,0,52.3,0,12,0,9.7,0
2004/2/4,5:45,,1,,1,12.4,0,53.1,0,11.9,0,52.5,0,11.9,0,52.5,0,11.9,0,9.7,0
2004/2/4,6:00,,1,,1,12.3,0,53.3,0,11.8,0,52.5,0,11.8,0,52.5,0,11.8,0,9.8,0
2004/2/4,6:15,,1,,1,12.2,0,53.1,0,11.7,0,52.3,0,11.7,0,52.3,0,11.7,0,7.3,0
2004/2/4,6:30,,1,,1,12.6,0,53.2,0,11.8,0,52.1,0,11.8,0,52.1,0,11.6,0,7.5,0
2004/2/4,6:45,,1,,1,13,0,52.4,0,11.9,0,53,0,11.9,0,53,0,11.6,0,7.6,0